This demonstration page uses our WeatherBlox Daily Observations layout. Learn more.

Left ArrowRight Arrow

40.92945, -100.16068

Hourly Observations for April 10, 2021

Temp ( °F °C ) Dew Point ( °F °C ) Humidity (%) Winds ( mph kmh ) Pressure ( in mb ) Visibility ( mi km ) Precip ( " mm )
12:15 am 00:15 Cloudy 40 4.3 35 1.8 84 84 NW 8 13 30 1016 10 16.0934 0 0
12:35 am 00:35 Mostly Cloudy 38 3.3 35 1.7 89 89 WNW 10 17 30.01 1016 10 16.0934 0 0
12:55 am 00:55 Mostly Cloudy 37 2.6 35 1.5 93 93 WNW 9 15 30.02 1017 10 16.0934 0 0
1:15 am 01:15 Cloudy 36 2.2 34 1.2 93 93 WNW 12 19 30.03 1017 10 16.0934 0 0
1:35 am 01:35 Mostly Cloudy 35 1.9 33 0.7 92 92 WNW 9 15 30.03 1017 10 16.0934 0 0
1:55 am 01:55 Partly Cloudy 34 1.2 32 0.1 92 92 WNW 12 19 30.02 1017 10 16.0934 0 0
2:15 am 02:15 Clear 33 0.6 32 -0.2 94 94 WNW 10 17 30.02 1017 10 16.0934 0 0
2:35 am 02:35 Clear 32 0.2 30 -0.9 92 92 WNW 9 15 30.02 1017 10 16.0934 0 0
2:55 am 02:55 Clear 32 0 29 -1.5 90 90 WNW 9 15 30.03 1017 10 16.0934 0 0
3:15 am 03:15 Clear 32 0 29 -1.5 90 90 WNW 12 19 30.02 1016 10 16.0934 0 0
3:35 am 03:35 Clear 32 0 29 -1.8 88 88 WNW 10 17 30.02 1016 10 16.0934 0 0
3:55 am 03:55 Clear 32 0.1 29 -1.9 87 87 NW 13 20 30.02 1016 10 16.0934 0 0
4:15 am 04:15 Clear 32 0 28 -2.2 85 85 WNW 10 17 30.01 1016 10 16.0934 0 0
4:35 am 04:35 Clear 31 -0.7 28 -2.5 88 88 W 14 22 30.01 1016 10 16.0934 0 0
4:55 am 04:55 Clear 31 -0.6 27 -2.8 85 85 WNW 10 17 30.01 1016 10 16.0934 0 0
5:15 am 05:15 Clear 30 -1 27 -3 86 86 WNW 9 15 30.02 1016 10 16.0934 0 0
5:35 am 05:35 Clear 30 -1.3 26 -3.2 87 87 WNW 9 15 30.02 1017 10 16.0934 0 0
5:55 am 05:55 Clear 29 -1.6 26 -3.5 87 87 WNW 7 11 30.01 1016 10 16.0934 0 0
6:15 am 06:15 Clear 30 -1.2 26 -3.6 84 84 WNW 14 22 30.02 1017 10 16.0934 0 0
6:35 am 06:35 Clear 30 -0.9 25 -3.8 81 81 WNW 13 20 30.03 1017 10 16.0934 0 0
6:55 am 06:55 Clear 30 -0.9 25 -3.7 82 82 WNW 16 26 30.03 1017 10 16.0934 0 0
7:15 am 07:15 Sunny 30 -1.1 25 -3.9 82 82 WNW 13 20 30.03 1017 10 16.0934 0 0
7:35 am 07:35 Sunny 29 -1.5 25 -4.1 83 83 WNW 10 17 30.03 1017 10 16.0934 0 0
7:55 am 07:55 Sunny 30 -1.3 25 -4 82 82 WNW 12 19 30.03 1017 10 16.0934 0 0
8:15 am 08:15 Sunny 31 -0.7 25 -3.7 80 80 W 6 9 30.04 1017 10 16.0934 0 0
8:35 am 08:35 Sunny 32 0 26 -3.5 78 78 WNW 10 17 30.04 1017 10 16.0934 0 0
8:55 am 08:55 Sunny 34 0.9 26 -3.1 75 75 WNW 13 20 30.03 1017 10 16.0934 0 0
9:15 am 09:15 Sunny 37 2.6 29 -1.9 73 73 WNW 12 19 30.01 1016 10 16.0934 0 0
9:35 am 09:35 Sunny 39 3.8 28 -2 66 66 W 12 19 30 1016 10 16.0934 0 0
9:55 am 09:55 Sunny 41 4.9 30 -1.3 65 65 WNW 12 19 29.98 1015 10 16.0934 0 0
10:15 am 10:15 Sunny 44 6.8 29 -1.9 54 54 W 12 19 29.96 1015 10 16.0934 0 0
10:35 am 10:35 Sunny 46 7.9 28 -2 50 50 NW 9 15 29.95 1014 10 16.0934 0 0
10:55 am 10:55 Sunny 48 9.1 30 -1.3 48 48 W 7 11 29.94 1014 10 16.0934 0 0
11:15 am 11:15 Sunny 50 10.1 26 -3.5 39 39 WNW 6 9 29.93 1014 10 16.0934 0 0
11:35 am 11:35 Sunny 51 10.6 25 -3.7 37 37 NW 6 9 29.92 1013 10 16.0934 0 0
11:55 am 11:55 Sunny 53 11.4 22 -5.4 31 31 NW 3 6 29.91 1013 10 16.0934 0 0
12:15 pm 12:15 Sunny 53 11.7 23 -5 31 31 Calm 29.9 1012 10 16.0934 0 0
12:35 pm 12:35 Sunny 55 12.5 22 -5.7 28 28 N 7 11 29.88 1012 10 16.0934 0 0
12:55 pm 12:55 Sunny 55 12.8 21 -6.1 26 26 W 10 17 29.87 1011 10 16.0934 0 0
1:15 pm 13:15 Sunny 55 13 20 -6.6 25 25 WNW 12 19 29.85 1011 10 16.0934 0 0
1:35 pm 13:35 Sunny 56 13.6 20 -6.4 25 25 WNW 12 19 29.83 1010 10 16.0934 0 0
1:55 pm 13:55 Sunny 57 13.8 20 -6.5 24 24 NW 10 17 29.82 1010 10 16.0934 0 0
2:15 pm 14:15 Sunny 56 13.6 18 -7.9 22 22 WSW 3 6 29.81 1009 10 16.0934 0 0
2:35 pm 14:35 Sunny 57 14 17 -8.5 20 20 NNW 8 13 29.79 1009 10 16.0934 0 0
2:55 pm 14:55 Sunny 58 14.2 18 -8 21 21 WNW 9 15 29.79 1009 10 16.0934 0 0
3:15 pm 15:15 Sunny 58 14.7 18 -7.9 20 20 NW 8 13 29.77 1008 10 16.0934 0 0
3:35 pm 15:35 Sunny 60 15.4 19 -7.1 21 21 NW 8 13 29.75 1008 10 16.0934 0 0
3:55 pm 15:55 Sunny 60 15.4 19 -7.2 21 21 NW 5 7 29.74 1007 10 16.0934 0 0
4:15 pm 16:15 Sunny 60 15.6 20 -6.7 21 21 W 10 17 29.73 1007 10 16.0934 0 0
4:35 pm 16:35 Sunny 60 15.8 19 -7 20 20 W 5 7 29.71 1006 10 16.0934 0 0
4:55 pm 16:55 Sunny 62 16.4 20 -6.9 20 20 W 7 11 29.7 1006 10 16.0934 0 0
5:15 pm 17:15 Sunny 61 16.3 20 -6.4 21 21 NW 9 15 29.69 1006 10 16.0934 0 0
5:35 pm 17:35 Sunny 62 16.5 18 -7.7 18 18 WNW 7 11 29.68 1005 10 16.0934 0 0
5:55 pm 17:55 Sunny 62 16.6 18 -7.6 18 18 SW 5 7 29.67 1005 10 16.0934 0 0
6:15 pm 18:15 Sunny 62 16.4 18 -7.8 18 18 WNW 3 6 29.65 1004 10 16.0934 0 0
6:35 pm 18:35 Sunny 62 16.6 17 -8.3 17 17 Calm 29.65 1004 10 16.0934 0 0
6:55 pm 18:55 Sunny 62 16.7 19 -7.1 19 19 Calm 29.64 1004 10 16.0934 0 0
7:15 pm 19:15 Sunny 62 16.6 22 -5.8 21 21 Calm 29.64 1004 10 16.0934 0 0
7:35 pm 19:35 Sunny 61 16.1 23 -5.2 23 23 WSW 3 6 29.64 1004 10 16.0934 0 0
7:55 pm 19:55 Sunny 58 14.7 27 -2.8 30 30 SSW 3 6 29.65 1004 10 16.0934 0 0
8:15 pm 20:15 Clear 56 13.3 27 -3 32 32 Calm 29.65 1004 10 16.0934 0 0
8:35 pm 20:35 Clear 55 12.6 24 -4.5 30 30 SE 3 6 29.66 1004 10 16.0934 0 0
8:55 pm 20:55 Clear 51 10.6 25 -3.9 36 36 SSE 6 9 29.68 1005 10 16.0934 0 0
9:15 pm 21:15 Clear 51 10.8 24 -4.6 34 34 SE 5 7 29.67 1005 10 16.0934 0 0
9:35 pm 21:35 Clear 49 9.4 24 -4.3 38 38 SE 5 7 29.69 1005 10 16.0934 0 0
9:55 pm 21:55 Clear 45 7.3 28 -2.5 50 50 ESE 5 7 29.71 1006 10 16.0934 0 0
10:15 pm 22:15 Clear 46 7.5 25 -3.8 45 45 ESE 5 7 29.7 1006 10 16.0934 0 0
10:35 pm 22:35 Clear 46 7.5 24 -4.6 42 42 SE 5 7 29.7 1006 10 16.0934 0 0
10:55 pm 22:55 Clear 43 6.1 25 -3.8 49 49 SE 5 7 29.71 1006 10 16.0934 0 0
11:15 pm 23:15 Clear 44 6.7 23 -5.1 43 43 SE 5 7 29.7 1006 10 16.0934 0 0
11:35 pm 23:35 Clear 43 6 23 -4.8 46 46 SE 5 7 29.7 1006 10 16.0934 0 0
11:55 pm 23:55 Clear 43 5.9 24 -4.5 48 48 SE 5 7 29.7 1006 10 16.0934 0 0

Powered by AerisWeather